Weather observations for the past three days for
Albuquerque, Double Eagle II Airport
Imperial (Metric)
Date Time (mdt) Wind (mph) Vis. (mi.) Weather Sky Cond. Temperature (ºF) Relative Humidity Wind Chill (°F) Heat Index (°F) Pressure Precipitation (in)
Air Dwpt 6 hour altimeter (in) sea level (mb) 1 hr 3 hr 6 hr
Max. Min.
09 03:35 Calm 10.00 Fair CLR 60.3 18.3 20% 30.02 0.0
09 03:15 E 6 10.00 Fair CLR 55.2 18.7 24% 30.02 0.0
09 02:55 W 7 10.00 Fair CLR 52 18.5 27% 30.01 0.0
09 02:35 W 7 10.00 Fair CLR 53.8 18.1 25% 30.02 0.0
09 02:15 W 9 10.00 Fair CLR 53.6 18.1 25% 30.02 0.0
09 01:35 W 8 10.00 Fair CLR 56.5 18.1 22% 30.02 0.0
09 01:15 W 8 10.00 Fair CLR 57.6 17.6 21% 30.02 0.0
09 00:55 NW 10 10.00 Fair CLR 59 17.4 20% 30.03 0.0
09 00:35 NW 9 10.00 Fair CLR 57.9 17.4 20% 30.03 0.0
09 00:15 NW 8 10.00 Fair CLR 60.3 17.2 19% 30.02 0.0
08 23:55 NW 10 10.00 Fair CLR 62.2 17.2 79.9 60.3 17% 30.03 0.0
08 23:35 NW 12 10.00 Fair CLR 62.1 17.4 18% 30.02 0.0
08 23:15 NW 12 10.00 Fair CLR 62.8 16.7 17% 30.02 0.0
08 22:55 NW 8 10.00 Fair CLR 61.5 16.5 17% 30.03 0.0
08 22:35 NW 8 10.00 Fair CLR 62.2 16.2 17% 30.03 0.0
08 22:15 NW 6 10.00 Fair CLR 62.1 15.8 16% 30.03 0.0
08 21:55 NW 7 10.00 Fair CLR 63.1 15.8 16% 30.02 0.0
08 21:35 NW 8 10.00 Fair CLR 65.5 15.4 14% 30.01 0.0
08 21:15 NW 5 10.00 Fair CLR 66.4 15.8 14% 30 0.0
08 20:50 Vrbl 5 10.00 Fair CLR 68 14 12% 30 0.0
08 19:50 NW 14 10.00 Fair CLR 75.2 14 10% 75 29.98 0.0
08 18:50 NW 16 G 20 10.00 Fair CLR 78.8 14 8% 77 29.98 0.0
08 17:50 NW 5 G 22 10.00 Fair CLR 78.8 14 8% 77 29.98 0.0
08 16:48 NW 16 G 26 10.00 Fair CLR 80.6 12.2 7% 78 29.98 0.0
08 15:47 NW 14 G 22 10.00 Fair CLR 82.4 15.8 8% 80 29.99 0.0
08 14:55 W 12 G 24 10.00 Fair CLR 78.8 15.8 9% 77 30 0.0
08 13:55 W 10 G 20 10.00 Fair CLR 78.8 17.6 10% 77 30.02 0.0
08 12:50 W 12 G 28 10.00 Fair CLR 77 19.4 11% 76 30.04 0.0
08 11:50 NW 16 G 22 10.00 Fair CLR 73.4 19.4 13% 30.07 0.0
08 10:50 Vrbl 7 10.00 Fair CLR 68 19.4 16% 30.09 0.0
08 09:50 Calm 10.00 Fair CLR 66.2 19.4 17% 30.11 0.0
08 08:50 Calm 10.00 Fair CLR 62.6 19.4 19% 30.1 0.0
08 07:50 Calm 10.00 Fair CLR 57.2 17.6 21% 30.1 0.0
08 06:50 S 6 10.00 Fair CLR 44.6 15.8 31% 42 30.08 0.0
08 05:35 Calm 10.00 Fair CLR 44.8 13.6 28% 30.06 0.0
08 05:15 S 3 10.00 Fair CLR 43.5 13.8 30% 30.06 0.0
08 04:55 S 3 10.00 Fair CLR 48 13.6 25% 30.06 0.0
08 04:35 Calm 10.00 Fair CLR 43.7 14.4 30% 30.05 0.0
08 04:15 W 6 10.00 Fair CLR 43.9 14.2 30% 41 30.05 0.0
08 03:55 NW 5 10.00 Fair CLR 42.4 14 31% 40 30.04 0.0
08 03:35 NW 7 10.00 Fair CLR 45.7 13.6 27% 43 30.05 0.0
08 03:15 NW 6 10.00 Fair CLR 50.2 12.2 22% 30.04 0.0
08 02:55 Calm 10.00 Fair CLR 53.2 11.5 19% 30.05 0.0
08 02:35 E 3 10.00 Fair CLR 46.9 12.4 25% 30.05 0.0
08 02:15 W 6 10.00 Fair CLR 44.1 12 27% 41 30.05 0.0
08 01:55 W 6 10.00 Fair CLR 45.5 10.9 24% 43 30.05 0.0
08 01:35 NW 8 10.00 Fair CLR 50.9 9.5 19% 30.06 0.0
08 01:15 W 9 10.00 Fair CLR 46.9 10.4 23% 43 30.06 0.0
08 00:55 NW 6 10.00 Fair CLR 47.7 10.4 22% 45 30.06 0.0
08 00:35 W 6 10.00 Fair CLR 48 10.2 21% 46 30.06 0.0
08 00:15 W 8 10.00 Fair CLR 49.3 9.5 20% 46 30.07 0.0
07 23:55 W 8 10.00 Fair CLR 50.7 9.7 72.3 46.8 19% 30.06 0.0
07 23:35 W 7 10.00 Fair CLR 51.3 8.4 18% 30.06 0.0
07 23:15 W 8 10.00 Fair CLR 50.7 7.7 17% 30.07 0.0
07 22:55 SW 10 10.00 Fair CLR 52.2 7 16% 30.06 0.0
07 22:35 W 9 10.00 Fair CLR 54.3 6.1 14% 30.07 0.0
07 22:15 SW 7 10.00 Fair CLR 48.7 8.6 19% 46 30.06 0.0
07 21:55 W 3 10.00 Fair CLR 52 6.8 16% 30.06 0.0
07 21:35 NW 6 10.00 Fair CLR 53.8 6.1 14% 30.06 0.0
07 21:15 NW 6 10.00 Fair CLR 57.7 3.4 11% 30.05 0.0
07 19:49 N 8 10.00 Fair CLR 66.2 10.4 11% 30.02 0.0
07 18:55 SW 8 10.00 Fair CLR 69.8 8.6 9% 30 0.0
07 17:50 SW 7 10.00 Fair CLR 71.6 8.6 8% 30 0.0
07 16:47 NW 6 10.00 Fair CLR 71.6 6.8 8% 30.03 0.0
07 15:47 NW 6 10.00 Fair CLR 71.6 1.4 6% 30.05 0.0
07 14:50 W 7 10.00 Fair CLR 68 6.8 9% 30.08 0.0
07 13:50 W 6 10.00 Fair CLR 66.2 10.4 11% 30.11 0.0
07 12:48 N 5 10.00 Fair CLR 62.6 14 15% 30.14 0.0
07 11:48 N 5 10.00 Fair CLR 59 21.2 23% 30.17 0.0
07 10:50 N 8 10.00 Fair CLR 55.4 21.2 26% 30.19 0.0
07 09:47 N 7 10.00 Fair CLR 51.8 24.8 35% 30.21 0.0
07 08:50 N 13 10.00 Fair CLR 48.2 24.8 40% 43 30.21 0.0
07 07:47 N 16 10.00 Fair CLR 42.8 26.6 53% 36 30.21 0.0
07 06:50 N 13 10.00 Fair CLR 41 30.2 66% 34 30.2 0.0
07 05:50 NW 8 10.00 Fair CLR 37.4 28.4 70% 32 30.19 0.0
07 05:30 N 9 10.00 Fair CLR 37 27.3 68% 31 30.19 0.0
07 05:10 N 9 10.00 Fair CLR 38.1 26.2 62% 32 30.19 0.0
07 04:50 N 10 10.00 Fair CLR 39 25.2 58% 33 30.19 0.0
07 04:30 N 10 10.00 Fair CLR 39.2 21.9 50% 33 30.19 0.0
07 04:10 N 10 10.00 Fair CLR 39 18.5 44% 33 30.19 0.0
07 03:50 N 9 10.00 Fair CLR 37.8 15.8 41% 32 30.19 0.0
07 03:30 NW 10 10.00 Fair CLR 39.2 14.9 37% 33 30.19 0.0
07 03:10 N 7 10.00 Fair CLR 36.5 15.1 41% 32 30.19 0.0
07 02:50 NE 7 10.00 Fair CLR 39.4 14.9 37% 35 30.19 0.0
07 02:30 E 6 10.00 Fair CLR 41 15.3 35% 38 30.19 0.0
07 02:10 NW 10 10.00 Fair CLR 42.4 15.4 33% 37 30.17 0.0
07 01:50 NW 10 10.00 Fair CLR 41.5 15.6 35% 36 30.17 0.0
07 01:30 W 10 10.00 Fair CLR 41 15.6 36% 35 30.17 0.0
07 01:10 NW 8 10.00 Fair CLR 42.1 15.8 34% 38 30.17 0.0
07 00:50 NW 9 10.00 Fair CLR 43.3 15.8 33% 39 30.17 0.0
07 00:30 NW 10 10.00 Fair CLR 43.5 16.3 33% 38 30.17 0.0
07 00:10 NW 5 10.00 Fair CLR 40.5 17.1 39% 38 30.17 0.0
06 23:50 NW 9 10.00 Fair CLR 45.9 16.5 59 45.9 31% 42 30.16 0.0
06 23:30 NW 12 10.00 Fair CLR 48.2 15.8 27% 44 30.16 0.0
06 23:10 NW 9 10.00 Fair CLR 48.9 16.5 27% 45 30.16 0.0
06 22:50 NW 10 10.00 Fair CLR 49.5 18.5 29% 46 30.15 0.0
06 22:30 NW 10 10.00 Fair CLR 49.1 22.8 36% 45 30.15 0.0
06 22:10 NW 8 10.00 Fair CLR 48.2 26.8 43% 45 30.15 0.0
06 21:50 NW 7 10.00 Fair CLR 49.3 28.6 45% 47 30.13 0.0
06 21:30 NW 7 10.00 Fair CLR 51.4 28.8 42% 30.12 0.0
06 21:10 NW 8 10.00 Fair CLR 50.9 29.1 43% 30.11 0.0
06 20:50 W 6 10.00 Partly Cloudy SCT090 50 28.4 43% 48 30.09 0.0
06 19:50 NW 12 10.00 Fair CLR 55.4 30.2 38% 30.07 0.0
06 18:50 NW 17 G 23 10.00 Partly Cloudy SCT070 SCT110 57.2 32 39% 30.05 0.0
06 17:50 NW 18 G 37 10.00 Light Rain SCT022 BKN070 BKN090 59 32 36% 30.03 0.0
06 16:50 NW 22 G 28 10.00 Overcast and Breezy SCT090 OVC110 62.6 28.4 27% 29.98 0.0
06 15:50 SW 10 G 24 10.00 Light Rain SCT027 BKN090 OVC110 64.4 30.2 28% 29.97 0.0
06 14:50 SW 17 G 24 10.00 Mostly Cloudy BKN110 68 26.6 21% 29.98 0.0
06 13:47 W 16 G 23 10.00 Mostly Cloudy BKN100 64.4 26.6 24% 29.98 0.0
06 12:50 SW 6 G 26 10.00 Partly Cloudy SCT060 SCT080 60.8 28.4 29% 30 0.0
06 11:47 W 10 10.00 Partly Cloudy SCT060 SCT070 59 30.2 34% 30.02 0.0
06 10:47 W 8 10.00 Fair CLR 55.4 30.2 38% 30.03 0.0
06 09:47 SW 14 10.00 Fair CLR 51.8 30.2 44% 30.02 0.0
06 08:47 SW 14 10.00 Fair CLR 48.2 30.2 50% 43 30.03 0.0
06 07:47 SW 13 10.00 A Few Clouds FEW070 46.4 32 57% 41 30.03 0.0
06 06:47 S 9 10.00 Mostly Cloudy BKN050 41 32 70% 36 30.02 0.0
06 05:30 SW 8 10.00 Fair CLR 37.4 30.9 77% 32 29.99 0.0
06 05:10 SW 9 10.00 Fair CLR 37.4 31.6 80% 31 29.99 0.0
06 04:50 SW 7 10.00 Fair CLR 37.6 31.8 80% 33 29.99 0.0
06 04:30 SW 8 10.00 Fair CLR 39.2 32 75% 34 29.99 0.0
06 04:10 SW 9 10.00 Fair CLR 39 32 76% 33 29.98 0.0
Date Time (mdt) Wind (mph) Vis. (mi.) Weather Sky Cond. Air Dwpt Max. Min. Relative Humidity Wind Chill (°F) Heat Index (°F) altimeter (in) sea level (mb) 1 hr 3 hr 6 hr
6 hour
Temperature (ºF) Pressure Precipitation (in)